Regional Weather Roundup
Issued by NWS Albany, NY

Home | Current Version | Previous Version | Text Only | Print | Product List | Glossary On
Versions: 1 2 3 4 5 6 7 8 9 10 11 12 13 14 15 16 17 18 19 20 21 22 23 24 25 26 27 28 29 30 31 32 33 34 35 36 37 38 39 40 41 42 43 44 45 46 47 48 49 50
000
ASUS41 KALY 291510
RWRALY

NEW YORK STATE HOURLY WEATHER ROUNDUP
NATIONAL WEATHER SERVICE ALBANY NY
1100 AM EDT FRI JUL 29 2016

NOTE: "FAIR" INDICATES FEW OR NO CLOUDS BELOW 12,000 FEET WITH NO
SIGNIFICANT WEATHER AND/OR NO OBSTRUCTIONS TO VISIBILITY.

NYZ032-033-038>043-046>054-057>066-NYZ062>081-082-084-291600-
EAST


CITY           SKY/WX    TMP DP  RH WIND       PRES   REMARKS
ALBANY         PTSUNNY   76  67  73 NW8       29.90S
GLENS FALLS    SUNNY     79  64  60 VRB5      29.90F
POUGHKEEPSIE   PTSUNNY   81  69  67 N8        29.87F
NEWBURGH       PTSUNNY   77  70  78 E14       29.90F
MONTGOMERY     SUNNY     78  68  71 NE6       29.89S
WHITE PLAINS   CLOUDY    75  69  81 NE8       29.86F
ISLIP          LGT RAIN  70  68  93 NE13      29.84S FOG
NEW YORK CITY  CLOUDY    74  67  78 NE10      29.85R
CENTRAL PARK   CLOUDY    73  68  84 NE8       29.89R
$$

NYZ005>009-017-018-044>046-055-056-291600-
CENTRAL


CITY           SKY/WX    TMP DP  RH WIND       PRES   REMARKS
FULTON         MOSUNNY   84  66  54 VRB5      29.94R
SYRACUSE       MOSUNNY   79  66  64 NE6       29.92R
ROME           MOSUNNY   79  67  66 CALM      29.92S
ELMIRA         SUNNY     82  61  48 NE12      29.93R
BINGHAMTON     SUNNY     79  61  53 N7        29.95S
MONTICELLO     PTSUNNY   72  68  88 N3        29.95S
$$

NYZ026>034-041>043-087-291600-
NORTH


CITY           SKY/WX    TMP DP  RH WIND       PRES   REMARKS
WATERTOWN      SUNNY     78  58  49 N8        29.95R
FORT DRUM      NOT AVBL
MASSENA        MOSUNNY   73  57  57 E8        29.97S
SARANAC LAKE   MOSUNNY   73  52  47 E7        29.97S
PLATTSBURGH    SUNNY     74  64  71 NE7       29.93S
$$

NYZ001>004-010>016-019>021-085-291600-
WEST


CITY           SKY/WX    TMP DP  RH WIND       PRES   REMARKS
NIAGARA FALLS  PTSUNNY   78  63  59 NE9       29.96S
BUFFALO        MOSUNNY   77  65  66 NE8       29.95F
DUNKIRK        SUNNY     79  67  66 N9        29.95S
JAMESTOWN      SUNNY     75  57  53 CALM      29.99S
WELLSVILLE     MOSUNNY   76  61  59 CALM      30.01S
ROCHESTER      PTSUNNY   77  65  66 NE10      29.97R
PENN YAN       PTSUNNY   79  64  60 NW8       29.96R
$$

             KEY
       WCI = WIND CHILL INDEX
       VSB = VISIBILITY
       HX  = HEAT INDEX
$$



USA.gov is the U.S. government's official web portal to all federal, state and local government web resources and services.